TimePDT,TemperatureF,Dew PointF,Humidity,Sea Level PressureIn,VisibilityMPH,Wind Direction,Wind SpeedMPH,Gust SpeedMPH,PrecipitationIn,Events,Conditions,WindDirDegrees,DateUTC
12:39 AM,48.2,46.4,93,30.19,1.8,Calm,Calm,-,N/A,,Mostly Cloudy,0,2013-09-27 07:39:00
12:48 AM,46.4,46.4,100,30.19,0.5,Calm,Calm,-,N/A,Fog,Fog,0,2013-09-27 07:48:00
12:53 AM,46.9,46.9,100,30.19,0.8,Calm,Calm,-,N/A,,Scattered Clouds,0,2013-09-27 07:53:00
1:02 AM,46.4,46.4,100,30.18,2.0,Calm,Calm,-,N/A,,Partly Cloudy,0,2013-09-27 08:02:00
1:12 AM,46.4,46.4,100,30.19,0.8,Calm,Calm,-,N/A,,Partly Cloudy,0,2013-09-27 08:12:00
1:18 AM,46.4,46.4,100,30.19,0.5,Calm,Calm,-,N/A,Fog,Fog,0,2013-09-27 08:18:00
1:53 AM,45.0,45.0,100,30.19,0.8,Calm,Calm,-,N/A,,Mist,0,2013-09-27 08:53:00
2:05 AM,44.6,44.6,100,30.19,1.0,Calm,Calm,-,N/A,,Mist,0,2013-09-27 09:05:00
2:16 AM,44.6,44.6,100,30.19,0.5,Calm,Calm,-,N/A,Fog,Fog,0,2013-09-27 09:16:00
2:23 AM,44.6,44.6,100,30.19,0.2,Calm,Calm,-,N/A,Fog,Fog,0,2013-09-27 09:23:00
2:53 AM,44.1,44.1,100,30.19,0.5,Calm,Calm,-,N/A,Fog,Fog,0,2013-09-27 09:53:00
3:28 AM,42.8,42.8,100,30.18,0.5,Calm,Calm,-,N/A,Fog,Fog,0,2013-09-27 10:28:00
3:49 AM,42.8,42.8,100,30.18,0.5,Calm,Calm,-,N/A,Fog,Fog,0,2013-09-27 10:49:00
3:53 AM,44.1,44.1,100,30.18,1.0,Calm,Calm,-,N/A,,Mist,0,2013-09-27 10:53:00
3:57 AM,44.6,44.6,100,30.18,2.5,Calm,Calm,-,N/A,,Clear,0,2013-09-27 10:57:00
4:04 AM,44.6,44.6,100,30.18,6.0,Calm,Calm,-,N/A,,Clear,0,2013-09-27 11:04:00
4:53 AM,45.0,44.1,97,30.16,4.0,Calm,Calm,-,N/A,,Partly Cloudy,0,2013-09-27 11:53:00
4:55 AM,44.6,44.6,100,30.16,1.8,Calm,Calm,-,N/A,,Partly Cloudy,0,2013-09-27 11:55:00
5:05 AM,44.6,44.6,100,30.16,0.8,Calm,Calm,-,N/A,,Mostly Cloudy,0,2013-09-27 12:05:00
5:11 AM,44.6,44.6,100,30.16,1.2,Calm,Calm,-,N/A,,Mostly Cloudy,0,2013-09-27 12:11:00
5:22 AM,44.6,44.6,100,30.16,0.8,Calm,Calm,-,N/A,,Overcast,0,2013-09-27 12:22:00
5:30 AM,44.6,44.6,100,30.16,2.0,Calm,Calm,-,N/A,,Overcast,0,2013-09-27 12:30:00
5:38 AM,44.6,44.6,100,30.16,6.0,Calm,Calm,-,N/A,,Overcast,0,2013-09-27 12:38:00
5:53 AM,45.0,45.0,100,30.16,8.0,Calm,Calm,-,N/A,,Overcast,0,2013-09-27 12:53:00
6:53 AM,46.0,46.0,100,30.17,10.0,Calm,Calm,-,N/A,,Mostly Cloudy,0,2013-09-27 13:53:00
7:19 AM,46.4,46.4,100,30.15,10.0,SSW,3.5,-,N/A,,Overcast,210,2013-09-27 14:19:00
7:53 AM,48.0,46.9,96,30.15,10.0,South,4.6,-,N/A,,Overcast,190,2013-09-27 14:53:00
8:53 AM,51.1,48.0,89,30.16,10.0,SSW,6.9,-,N/A,,Overcast,210,2013-09-27 15:53:00
9:53 AM,53.1,48.9,86,30.16,10.0,SSW,8.1,-,N/A,,Overcast,210,2013-09-27 16:53:00
10:53 AM,54.0,50.0,86,30.13,10.0,South,15.0,-,0.02,Rain,Light Rain,190,2013-09-27 17:53:00
11:53 AM,55.0,51.1,86,30.11,10.0,SSW,15.0,21.9,0.02,,Overcast,200,2013-09-27 18:53:00
12:53 PM,57.0,50.0,77,30.09,10.0,South,12.7,24.2,0.00,Rain,Light Rain,190,2013-09-27 19:53:00
1:53 PM,55.0,52.0,89,30.07,7.0,SSW,8.1,-,0.03,Rain,Light Rain,200,2013-09-27 20:53:00
2:53 PM,55.0,50.0,83,30.06,10.0,SSW,16.1,26.5,0.01,,Overcast,200,2013-09-27 21:53:00
3:53 PM,55.0,48.9,80,30.04,10.0,South,20.7,27.6,0.00,Rain,Light Rain,190,2013-09-27 22:53:00
4:53 PM,55.0,50.0,83,30.04,10.0,SSW,17.3,27.6,0.00,,Overcast,200,2013-09-27 23:53:00
5:37 PM,53.6,51.8,94,30.03,10.0,South,17.3,27.6,0.00,,Overcast,190,2013-09-28 00:37:00
5:53 PM,54.0,51.1,90,30.03,10.0,South,10.4,24.2,0.00,,Overcast,190,2013-09-28 00:53:00
6:08 PM,53.6,51.8,94,30.03,10.0,South,13.8,21.9,N/A,,Overcast,190,2013-09-28 01:08:00
6:53 PM,54.0,51.1,90,30.02,10.0,SSW,15.0,27.6,0.01,Rain,Light Rain,200,2013-09-28 01:53:00
7:14 PM,53.6,51.8,94,30.01,10.0,SSW,12.7,24.2,0.00,,Overcast,200,2013-09-28 02:14:00
7:53 PM,54.0,52.0,93,30.01,7.0,South,15.0,25.3,0.01,Rain,Rain,190,2013-09-28 02:53:00
8:24 PM,53.6,51.8,94,30.00,8.0,South,10.4,20.7,0.09,Rain,Light Rain,190,2013-09-28 03:24:00
8:53 PM,54.0,52.0,93,29.99,10.0,South,13.8,20.7,0.10,,Overcast,190,2013-09-28 03:53:00
9:04 PM,53.6,51.8,94,29.99,10.0,South,12.7,-,N/A,,Overcast,190,2013-09-28 04:04:00
9:53 PM,55.0,52.0,89,29.98,10.0,South,12.7,20.7,N/A,,Overcast,190,2013-09-28 04:53:00
10:07 PM,55.4,53.6,94,29.97,10.0,South,12.7,23.0,N/A,,Overcast,190,2013-09-28 05:07:00
10:20 PM,55.4,53.6,94,29.97,10.0,South,13.8,19.6,N/A,,Overcast,190,2013-09-28 05:20:00
10:53 PM,55.9,53.1,90,29.96,10.0,South,13.8,20.7,0.00,Rain,Light Rain,190,2013-09-28 05:53:00
11:17 PM,55.4,53.6,94,29.95,10.0,South,11.5,20.7,0.00,,Overcast,190,2013-09-28 06:17:00
11:41 PM,55.4,53.6,94,29.94,10.0,SSW,15.0,23.0,0.00,,Overcast,200,2013-09-28 06:41:00
11:53 PM,55.9,54.0,93,29.94,10.0,South,13.8,23.0,0.00,,Overcast,190,2013-09-28 06:53:00